Location: Strada George Coșbuc
(47.6577°N, 23.5639°E)
Time: 22:25:21
(UTC+03:00)

ISS - Pass Details

Date: 05 September 2017
Orbit: 401 x 407 km, 51.6° (Epoch: 25 September)

Event Time Altitude Azimuth Distance (km) Brightness Sun altitude
Exits shadow 05:23:54 20° 195° (SSW) 1,006 -2.2 -14.4°
Maximum altitude 05:25:34 33° 144° (SE) 707 -2.6 -14.2°
Drops below altitude 10° 05:28:36 10° 78° (ENE) 1,474 0.3 -13.7°
Sets 05:30:48 0° 69° (ENE) 2,338 2.0 -13.4°
